Location: *
(60.1759°S, 155.0663°W)
Time: 06:38:15
(UTC+00:00)

Cosmos 2082 Rocket - Pass Details

Date: 17 September 2019
Orbit: 831 x 855 km, 71.0° (Epoch: 18 October)

Event Time Altitude Azimuth Distance (km) Brightness Sun altitude
Rises 14:48:43 0° 346° (NNW) 3,409 5.0 -12.5°
Reaches altitude 10° 14:51:14 10° 351° (N) 2,477 4.4 -12.2°
Maximum altitude 14:56:40 48° 63° (ENE) 1,104 3.2 -11.5°
Drops below altitude 10° 15:02:07 10° 136° (SE) 2,486 5.6 -10.9°
Sets 15:04:38 0° 140° (SE) 3,424 6.3 -10.6°
